KT5AL Weather Reports


Display with metric or nautical units.
time (UTC)temp
F
wind
direction
speed
MPH
gust
MPH
rain 1hr
in
rain 24hr
in
rain mn
in
humidity
%
barometer
mb
20210421163911 56 157 5.0 7.0 0.00 0.00 0.00 44 1024.9
20210421162203 54 112 4.0 7.0 0.00 0.00 0.00 49 1024.9
20210421152833 51 112 7.0 9.0 0.00 0.00 0.00 55 1025.6
20210421143741 52 202 3.0 3.0 0.00 0.00 0.00 69 1025.6
20210421142623 51 292 0.0 1.0 0.00 0.00 0.00 74 1025.9
20210421141417 46 202 3.0 3.0 0.00 0.00 0.00 95 1026.6
20210421133050 41 292 2.0 3.0 0.00 0.00 0.00 93 1028.0
20210421132530 40 292 3.0 4.0 0.00 0.00 0.00 94 1028.0
20210421132037 39 292 2.0 3.0 0.00 0.00 0.00 95 1028.0
20210421131620 38 292 3.0 3.0 0.00 0.00 0.00 96 1028.7
20210421130331 34 292 4.0 5.0 0.00 0.00 0.00 99 1029.3
20210421124409 34 292 2.0 3.0 0.00 0.00 0.00 99 1029.3
20210421124038 33 292 3.0 3.0 0.00 0.00 0.00 99 1029.3
20210421123114 33 292 3.0 4.0 0.00 0.00 0.00 99 1029.7
20210421122147 32 292 4.0 4.0 0.00 0.00 0.00 99 1029.7
20210421114527 33 292 4.0 4.0 0.00 0.00 0.00 99 1029.3
20210421113037 33 292 3.0 4.0 0.00 0.00 0.00 99 1029.3
20210421112645 33 292 4.0 4.0 0.00 0.00 0.00 99 1029.0
20210421111614 33 292 3.0 4.0 0.00 0.00 0.00 99 1029.0
20210421104552 33 292 4.0 5.0 0.00 0.00 0.00 99 1029.3
20210421104024 33 292 5.0 5.0 0.00 0.00 0.00 100 1029.3
20210421103040 33 292 5.0 5.0 0.00 0.00 0.00 100 1029.3
20210421102525 33 292 4.0 4.0 0.00 0.00 0.00 100 1029.3
20210421094030 32 337 0.0 0.0 0.00 0.00 0.00 99 1029.0
20210421093538 32 337 0.0 0.0 0.00 0.00 0.00 99 1029.0
20210421092043 33 337 0.0 0.0 0.00 0.00 0.00 97 1028.7
20210421091112 34 337 0.0 0.0 0.00 0.00 0.00 97 1028.7
20210421081558 35 337 8.0 10.0 0.00 0.00 0.00 94 1028.3
20210421081101 35 292 6.0 7.0 0.00 0.00 0.00 94 1028.3
20210421074534 35 292 5.0 6.0 0.00 0.00 0.00 94 1028.3
20210421074030 35 292 5.0 5.0 0.00 0.00 0.00 94 1028.3
20210421072527 34 292 6.0 6.0 0.00 0.00 0.00 97 1028.0
20210421071604 34 292 5.0 5.0 0.00 0.00 0.00 97 1028.7
20210421071053 34 292 4.0 4.0 0.00 0.00 0.00 96 1028.7
20210421064018 35 360 3.0 4.0 0.00 0.00 0.00 95 1028.0
20210421063509 35 360 4.0 5.0 0.00 0.00 0.00 94 1028.0
20210421062858 36 360 4.0 5.0 0.00 0.00 0.00 94 1027.6
20210421060149 37 22 4.0 4.0 0.00 0.00 0.00 91 1027.6
20210421054020 38 337 5.0 5.0 0.00 0.00 0.00 87 1027.6
20210421053522 38 337 5.0 6.0 0.00 0.00 0.00 87 1027.6
20210421053120 38 337 5.0 5.0 0.00 0.00 0.00 88 1027.6
20210421052320 38 337 4.0 4.0 0.00 0.00 0.00 88 1027.6
20210421051523 38 337 5.0 5.0 0.00 0.00 0.00 88 1027.6
20210421050513 38 360 4.0 5.0 0.00 0.00 0.00 87 1027.6
20210421045137 38 22 2.0 3.0 0.00 0.00 0.00 86 1027.6
20210421043022 38 22 0.0 0.0 0.00 0.00 0.00 86 1027.6
20210421042840 38 22 0.0 0.0 0.00 0.00 0.00 85 1027.6
20210421041018 39 22 0.0 0.0 0.00 0.00 0.00 85 1027.6
20210421040151 39 22 2.0 3.0 0.00 0.00 0.00 85 1027.6
20210421035046 39 22 3.0 4.0 0.00 0.00 0.00 84 1027.6
20210421034023 39 22 2.0 3.0 0.00 0.00 0.00 84 1027.3
20210421033525 39 22 0.0 1.0 0.00 0.00 0.00 82 1027.0
20210421033017 40 22 3.0 4.0 0.00 0.00 0.00 83 1027.0
20210421032727 40 22 3.0 4.0 0.00 0.00 0.00 81 1027.0
20210421032637 40 22 3.0 4.0 0.00 0.00 0.00 80 1027.0
20210421031023 41 22 4.0 5.0 0.00 0.00 0.00 78 1026.6
20210421030520 41 22 4.0 5.0 0.00 0.00 0.00 77 1026.6
20210421025834 41 22 4.0 5.0 0.00 0.00 0.00 76 1026.3
20210421024514 42 22 5.0 6.0 0.00 0.00 0.00 74 1026.3
20210421023511 42 22 5.0 7.0 0.00 0.00 0.00 73 1025.6
20210421022800 42 22 6.0 7.0 0.00 0.00 0.00 72 1025.6
20210421021520 43 22 6.0 8.0 0.00 0.00 0.00 71 1024.9
20210421021021 43 22 6.0 8.0 0.00 0.00 0.00 71 1024.9
20210421020519 43 22 8.0 10.0 0.00 0.00 0.00 70 1024.9
20210421020027 43 22 5.0 8.0 0.00 0.00 0.00 70 1024.9
20210421014030 44 22 9.0 12.0 0.00 0.00 0.00 66 1024.3
20210421012052 45 22 8.0 10.0 0.00 0.00 0.00 65 1023.9
20210421010510 46 22 9.0 12.0 0.00 0.00 0.00 61 1022.9
20210421005340 47 22 8.0 10.0 0.00 0.00 0.00 60 1022.9
20210421004528 47 22 11.0 13.0 0.00 0.00 0.00 59 1022.2
20210421003023 48 360 10.0 15.0 0.00 0.00 0.00 58 1022.2
20210421002206 48 360 11.0 15.0 0.00 0.00 0.00 57 1021.9
20210421001504 48 360 12.0 16.0 0.00 0.00 0.00 56 1021.9
20210421000519 49 360 14.0 19.0 0.00 0.00 0.00 55 1021.2
20210421000022 49 360 15.0 21.0 0.00 0.00 0.00 55 1021.2
20210420235759 49 360 17.0 24.0 0.00 0.00 0.00 55 1021.5
20210420235214 49 22 17.0 20.0 0.00 0.00 0.00 55 1021.5
20210420234517 49 22 12.0 19.0 0.00 0.00 0.00 55 1020.9
20210420232826 50 22 16.0 19.0 0.00 0.00 0.00 55 1020.5
20210420232209 50 67 16.0 22.0 0.00 0.00 0.00 55 1020.5
20210420231520 51 22 13.0 22.0 0.00 0.00 0.00 56 1020.5
20210420230512 50 360 14.0 18.0 0.00 0.00 0.00 55 1020.2
20210420224519 51 22 15.0 24.0 0.00 0.00 0.00 55 1020.2
20210420222607 51 360 14.0 19.0 0.00 0.00 0.00 55 1019.5
20210420221536 52 22 15.0 19.0 0.00 0.00 0.00 56 1019.5
20210420221016 51 360 16.0 22.0 0.00 0.00 0.00 57 1019.5
20210420220518 51 45 16.0 22.0 0.00 0.00 0.00 55 1019.9
20210420220020 51 22 12.0 18.0 0.00 0.00 0.00 57 1019.9
20210420215733 51 337 14.0 19.0 0.00 0.00 0.00 57 1019.9
20210420214512 51 337 14.0 21.0 0.00 0.00 0.00 57 1019.5
20210420214010 51 360 18.0 23.0 0.00 0.00 0.00 56 1019.5
20210420213511 52 22 17.0 21.0 0.00 0.00 0.00 56 1019.5
20210420212217 51 337 17.0 22.0 0.00 0.00 0.00 57 1019.5
20210420210511 53 22 18.0 23.0 0.00 0.00 0.00 54 1018.8
20210420210021 53 22 14.0 21.0 0.00 0.00 0.00 56 1018.8
20210420205517 54 360 15.0 20.0 0.00 0.00 0.00 56 1018.8
20210420204513 54 337 14.0 20.0 0.00 0.00 0.00 55 1018.5
20210420203519 55 360 12.0 16.0 0.00 0.00 0.00 53 1018.5
20210420203015 55 337 13.0 20.0 0.00 0.00 0.00 56 1018.5
20210420201017 55 337 18.0 25.0 0.00 0.00 0.00 54 1018.5
20210420200517 55 360 12.0 18.0 0.00 0.00 0.00 55 1018.8
20210420194508 55 22 13.0 19.0 0.00 0.00 0.00 56 1018.5
20210420194019 55 337 12.0 19.0 0.00 0.00 0.00 58 1018.5
20210420193028 54 360 15.0 23.0 0.00 0.00 0.00 57 1018.8
20210420192616 54 337 16.0 24.0 0.00 0.00 0.00 58 1018.8
20210420191518 54 337 11.0 18.0 0.00 0.00 0.00 58 1019.2
20210420190522 54 360 14.0 20.0 0.00 0.00 0.00 57 1018.8
20210420190012 53 22 14.0 23.0 0.00 0.00 0.00 59 1018.8
20210420184518 54 360 17.0 21.0 0.00 0.00 0.00 59 1018.8
20210420184011 53 360 15.0 22.0 0.00 0.00 0.00 59 1018.8
20210420183011 54 360 16.0 22.0 0.00 0.00 0.00 59 1018.8
20210420181524 53 22 15.0 20.0 0.00 0.00 0.00 61 1018.5
20210420180511 53 337 12.0 17.0 0.00 0.00 0.00 61 1018.8
20210420180054 53 360 18.0 22.0 0.00 0.00 0.00 59 1018.8
20210420174010 53 337 19.0 27.0 0.00 0.00 0.00 61 1018.8
20210420173505 53 360 16.0 24.0 0.00 0.00 0.00 62 1018.8
20210420171011 52 337 15.0 22.0 0.00 0.00 0.00 62 1018.8